Weather History for Buffalo, WY

Change the Weather History Date:

Tuesday, October 8, 2013

  Actual Average Record
Temperature  
Mean Temperature 53 °F 48 °F  
Max Temperature 61 °F 60 °F 74 °F (2014)
Min Temperature 45 °F 37 °F 24 °F (2000)
Degree Days  
Heating Degree Days 12 17  
Month to date heating degree days 150 124  
Since 1 July heating degree days 302 438  
Cooling Degree Days 0 0  
Month to date cooling degree days 0 0  
Year to date cooling degree days 709 491  
Growing Degree Days 3 (Base 50)    
Moisture  
Dew Point 32 °F    
Average Humidity 47    
Maximum Humidity 66    
Minimum Humidity 28    
Precipitation  
Precipitation 0.00 in 0.04 in 0.09 in (2002)
Month to date precipitation 1.70 0.35  
Year to date precipitation 9.46 11.93  
Sea Level Pressure  
Sea Level Pressure 29.73 in    
Wind  
Wind Speed 8 mph (NNW)    
Max Wind Speed 32 mph    
Max Gust Speed 144 mph    
Visibility 10 miles    
Events      
T = Trace of Precipitation, MM = Missing Value Source: NWS Daily Summary

Daily Weather History Graph

Daily Weather History Graph

Search for Another Location

Airport:

Trip Planner

Search our weather history database for the weather conditions in past years. The results will help you decide how hot, cold, wet, or windy it might be!

Date:

Astronomy

Oct. 08, 2013 Rise Set
Actual Time 7:13 AM MDT 6:34 PM MDT
Civil Twilight 6:44 AM MDT 7:03 PM MDT
Nautical Twilight 6:10 AM MDT 7:36 PM MDT
Astronomical Twilight 5:37 AM MDT 8:10 PM MDT
Moon 11:19 AM MDT (10/8) 9:04 PM MDT (10/8)
Length of Visible Light 12h 18m
Length of Day
11h 20m
Waxing Crescent, 16% of the Moon is Illuminated
Oct 8
Waxing Crescent
Oct 11
First Quarter
Oct 18
Full
Oct 26
Last Quarter
Nov 3
New

Hourly Weather History & Observations

Time (MDT) Temp. Windchill Dew Point Humidity Pressure Visibility Wind Dir Wind Speed Gust Speed Precip Events Conditions
12:53 AM 57.9 °F - 26.1 °F 30% 29.63 in 10.0 mi North 6.9 mph - N/A   Clear
1:53 AM 54.0 °F - 28.9 °F 38% 29.64 in 10.0 mi Calm Calm - N/A   Clear
2:53 AM 55.0 °F - 26.1 °F 33% 29.63 in 10.0 mi NW 6.9 mph - N/A   Clear
3:53 AM 57.0 °F - 25.0 °F 29% 29.60 in 10.0 mi NNW 8.1 mph - N/A   Clear
4:53 AM 51.1 °F - 28.9 °F 43% 29.64 in 10.0 mi WSW 5.8 mph - N/A   Clear
5:53 AM 46.0 °F 41.9 °F 30.0 °F 54% 29.70 in 10.0 mi NNW 8.1 mph - N/A   Clear
6:53 AM 50.0 °F - 32.0 °F 50% 29.72 in 10.0 mi NNW 12.7 mph 19.6 mph N/A   Clear
7:53 AM 48.9 °F - 32.0 °F 52% 29.75 in 10.0 mi NW 10.4 mph - N/A   Clear
8:53 AM 52.0 °F - 33.1 °F 49% 29.75 in 10.0 mi NNW 8.1 mph - N/A   Clear
9:53 AM 55.0 °F - 28.9 °F 37% 29.75 in 10.0 mi NNE 10.4 mph - N/A   Clear
10:53 AM 55.0 °F - 28.0 °F 35% 29.73 in 10.0 mi Variable 5.8 mph - N/A   Clear
11:53 AM 55.0 °F - 28.0 °F 35% 29.71 in 10.0 mi Calm Calm - N/A   Clear
12:53 PM 55.9 °F - 30.9 °F 39% 29.70 in 10.0 mi Variable 6.9 mph - N/A   Clear
1:53 PM 57.0 °F - 34.0 °F 42% 29.68 in 10.0 mi ESE 6.9 mph - N/A   Clear
2:53 PM 57.9 °F - 33.1 °F 39% 29.66 in 10.0 mi SSE 8.1 mph - N/A   Clear
3:53 PM 60.1 °F - 34.0 °F 38% 29.65 in 10.0 mi East 3.5 mph - N/A   Clear
4:53 PM 59.0 °F - 33.1 °F 38% 29.68 in 10.0 mi Calm Calm - N/A   Clear
5:53 PM 55.9 °F - 34.0 °F 44% 29.73 in 10.0 mi Calm Calm - N/A   Clear
6:53 PM 52.0 °F - 35.1 °F 53% 29.76 in 10.0 mi NNW 5.8 mph - N/A   Clear
7:53 PM 51.1 °F - 37.0 °F 59% 29.81 in 10.0 mi NW 9.2 mph - N/A   Partly Cloudy
8:53 PM 48.9 °F - 37.0 °F 64% 29.83 in 10.0 mi NNW 12.7 mph 26.5 mph N/A   Partly Cloudy
9:53 PM 48.0 °F - 34.0 °F 58% 29.86 in 10.0 mi NNW 13.8 mph 27.6 mph N/A   Clear
10:53 PM 46.9 °F - 34.0 °F 61% 29.89 in 10.0 mi NW 17.3 mph 28.8 mph N/A   Partly Cloudy
11:53 PM 46.9 °F - 34.0 °F 61% 29.91 in 10.0 mi NW 16.1 mph 21.9 mph N/A   Mostly Cloudy